Cloud_Cover
5 28 100 73 88 100 100 100 100 100 100 100 100 100 100 100 100 100 100 83 93 100
5 6 100 100 82 100 100 100 100 100 100 100 100 100 100 100 100 98 100 100 100 74
5 5 7 85 100 100 100 100 100 100 100 100 100 100 100 82 96 100 100 100 100 27
5 5 5 50 68 100 100 100 100 100 100 100 100 100 100 100 71 100 100 100 99 29
5 5 5 10 100 78 100 100 100 100 100 100 100 100 100 100 100 100 100 100 100 100
5 6 53 57 100 80 93 100 100 100 100 100 100 100 100 100 100 100 100 100 100 100
76 92 100 100 95 100 100 99 100 100 100 100 100 100 100 100 100 100 100 100 100 100
99 100 100 100 100 100 100 100 100 100 100 100 100 100 100 100 100 100 100 100 100 100
100 100 100 100 100 100 100 100 100 100 100 100 100 100 100 100 100 100 100 100 100 100
94 99 100 100 100 100 100 100 100 100 100 100 100 100 100 100 100 100 100 100 100 100
99 96 100 100 100 100 100 100 100 100 100 100 100 100 100 100 100 100 100 100 100 100
88 89 100 100 100 100 100 100 100 100 100 100 100 100 100 100 100 100 100 100 100 100
5 100 96 89 100 100 100 100 100 100 100 100 100 100 100 100 100 100 100 100 100 100
5 66 94 85 96 100 100 100 100 100 100 100 100 100 100 100 100 100 100 100 100 100